User: anonymous   Login
Location: Caltech
(34.1382°N, 118.1253°W)
Time: 01:24:46
(UTC-08:00)
Language:

OPAL - Orbit

View from above orbital plane
View from above orbital plane
View from above satellite
View from above satellite

Ground track
Ground track

The orbit data is extracted from the following two-line orbital elements,

1 26063U 00004C   17057.55542015 -.00000010  00000-0  16938-4 0  9991
2 26063 100.2222  40.5717 0035783 260.2578  99.4561 14.36653672895490
Epoch (UTC): 26 February 2017 13:19:48
Eccentricity: 0.0035783
inclination: 100.2222°
perigee height: 744 km
apogee height: 795 km
right ascension of ascending node: 40.5717°
argument of perigee: 260.2578°
revolutions per day: 14.36653672
mean anomaly at epoch: 99.4561°
orbit number at epoch: 89549

The dashed part of the orbit path shows where the satellite is in the earth's shadow,  

DLR